DECAYED

STARLINK-2048, 48092 (Decayed)

Orbit data source: Space-Track

STARLINK-2048, 48092 was a payload satellite owned by SpaceX/Seattle (US) in LEO that was launched on Wed, 07 Apr 2021 UTC via an FALCON 9 launch vehicle from the Air Force Eastern Test Range (AFETR). Payload-class satellites include a variety of spacecraft equipped with specific instruments for various scientific and technological missions. These include communications satellites like Starlink; space stations such as the ISS; scientific satellites like the Hubble; Earth observation satellites from companies like Planet Labs, Umbra, and HawkEye 360; GPS; miniature CubeSats for education and research; and military/defense satellites.

Not visible in the next 10 days
Identifier
48092, 2021-027A
Orbit
Decayed
Country
Flag of USUS
Related business
Manufacturer
SpaceX/Seattle
Mission
Decayed Commercial Communications
Bus & Motor
STARLINK, Unknown motor
Mass
260 kg wet, ~248 kg dry
Launch date (UTC)
2021-04-07 (5 years ago)
Launch vehicle
FALCON 9
Launch site
Air Force Eastern Test Range (AFETR)
Object type
Payload
Rocket body
Debris
Shape & HBR
Box + 1 Pan, 10.1 m
Radar Cross Section
13.562 m², Large (>1 m²)

Expand to show TLE details & history
Last TLE update: 1 year ago

TLE from 1 year ago
0 STARLINK-2048
1 48092U 21027A   25036.50575435  .14274619  12367-4  79294-3 0  9996
2 48092  53.0249  41.8428 0003264 188.4210 260.9113 16.42156799213721
Epoch: 2025-02-05T12:08Z
TLE epoch observation values (Epoch: 2025-02-05T12:08:17.175Z)
Latitude
53.17795°
Longitude
172.70262°
Altitude
166.882 km
Speed
7.813 km/s
True Right ascension
08h 42m 40s
True Declination
52° 59' 52"
Sunlit
Object was in full shadow at epoch
Visualization orbit readout
Latitude
Unknown
Longitude
Unknown
Altitude
Unknown
Speed
Unknown
Apparent Right ascension
Unknown
Apparent Declination
Unknown
Sunlit
N/A
Visualization observer readout
Local Sidereal Time
21:27:36
Azimuth
Unknown
Elevation
Unknown
Doppler factor
Unknown
Orbital elements
Apogee altitude
162.497 km
Perigee altitude
158.229 km
Semi-major axis
6,538.5 km
Eccentricity
0.00033
Inclination
53.0249°
RAAN
41.8428°
Arg. of periapsis
188.421°
True anomaly
260.87437°
Mean anomaly
260.9113°
Eccentric anomaly
260.89283°
Mean motion
4.10512 °/min
Orbital period
87.7 mins
BSTAR
0.00079294
Loading maneuver chart data...
Computing Atmospheric mass density...
Loading historical data...
Loading historical data...
Loading historical data...
Loading historical data...
Loading historical data...
Loading historical data...
Loading historical data...

Documentation

Showing up to 5 results
|